Pian Rosa, Italy

6:28 AM CET on December 08, 2016 (GMT +0100)
Pian Rosa

Weather History for LIMH - April, 2014

Change the Weather History Date:

Tuesday, April 15, 2014

  Actual Average Record
Temperature  
Mean Temperature 16 °F -  
Max Temperature 17 °F 26 °F 39 °F (2013)
Min Temperature 14 °F 14 °F 0 °F (2008)
Degree Days  
Heating Degree Days 50    
Moisture  
Dew Point -17 °F    
Average Humidity 17    
Maximum Humidity 39    
Minimum Humidity 5    
Precipitation  
Precipitation 0.00 in - - ()
Sea Level Pressure  
Sea Level Pressure 29.95 in    
Wind  
Wind Speed 30 mph ()    
Max Wind Speed 44 mph    
Max Gust Speed 75 mph    
Visibility 6.7 miles    
Events Snow    
Averages and records for this station are not official NWS values.
T = Trace of Precipitation, MM = Missing Value Source: Averaged Metar Reports

Daily Weather History Graph

Daily Weather History Graph

Search for Another Location

Airport or City:

Trip Planner

Search our weather history database for the weather conditions in past years. The results will help you decide how hot, cold, wet, or windy it might be!

Date:

Astronomy

Apr. 15, 2014 Rise Set
Actual Time 6:43 AM CEST 8:15 PM CEST
Civil Twilight 6:12 AM CEST 8:47 PM CEST
Nautical Twilight 5:34 AM CEST 9:25 PM CEST
Astronomical Twilight 4:53 AM CEST 10:06 PM CEST
Moon 8:41 PM CEST (4/15) 6:41 AM CEST (4/15)
Length of Visible Light 14h 34m
Length of Day
13h 32m
Full, 100% of the Moon is Illuminated
Apr 15
Full
Apr 22
Last Quarter
Apr 29
New
May 7
First Quarter
May 14
Full

Hourly Weather History & Observations

Time (CEST) Temp. Windchill Dew Point Humidity Pressure Visibility Wind Dir Wind Speed Gust Speed Precip Events Conditions
12:00 AM 19 °F - 4 °F 38%  in 6 mi North 28.8 mph - -  
12:55 AM 19.4 °F 0.8 °F -2.2 °F 39% 30.04 in - NNE 28.8 mph 49.5 mph N/A   Clear
1:00 AM 20 °F - -2 °F 23%  in 6 mi NNE 28.8 mph - -  
1:55 AM 19.4 °F -0.3 °F -9.4 °F 28% 30.01 in - NNE 33.4 mph 59.8 mph N/A   Clear
2:00 AM 19 °F - -9 °F 15%  in 6 mi NNE 33.4 mph - -  
2:55 AM 19.4 °F 1.8 °F -16.6 °F 20% 30.01 in - North 25.3 mph 43.7 mph N/A   Clear
3:00 AM 20 °F - -17 °F 7%  in 6 mi North 25.3 mph - -  
3:55 AM 19.4 °F 2.8 °F -22.0 °F 15% 29.98 in - North 21.9 mph 54.1 mph N/A   Clear
4:00 AM 20 °F - -22 °F 5%  in 6 mi North 21.9 mph - -  
4:55 AM 17.6 °F -1.0 °F -22.0 °F 16% 29.95 in - NNE 26.5 mph 44.9 mph N/A   Clear
5:00 AM 18 °F - -22 °F 5%  in 7 mi NNE 26.5 mph - -  
5:55 AM 15.8 °F -3.1 °F -22.0 °F 17% 29.92 in - NNE 25.3 mph 42.6 mph N/A   Clear
6:00 AM 17 °F - -22 °F 6%  in 7 mi NNE 25.3 mph - -  
6:55 AM 14.0 °F -8.8 °F -22.0 °F 19% 29.89 in - NNE 38.0 mph 59.8 mph N/A   Clear
7:00 AM 15 °F - -22 °F 6%  in 31 mi NNE 38.0 mph - -  
7:55 AM 14.0 °F -9.6 °F -22.0 °F 19% 29.86 in 6.2 mi NE 41.4 mph 62.1 mph N/A Snow Low Drifting Snow
8:00 AM 15 °F - -22 °F 6%  in 44 mi NE 41.4 mph - - Snow Heavy Low Drifting Snow
8:55 AM 15.8 °F -7.5 °F -22.0 °F 17% 29.86 in 6.2 mi NNE 43.7 mph 74.8 mph N/A Snow Low Drifting Snow
9:00 AM 15 °F - -22 °F 6%  in 44 mi NNE 43.7 mph - - Snow Heavy Low Drifting Snow
9:55 AM 15.8 °F -7.3 °F -22.0 °F 17% 29.86 in 6.2 mi NE 42.6 mph 63.3 mph N/A Snow Low Drifting Snow
10:00 AM 17 °F - -22 °F 6%  in 44 mi NE 42.6 mph - - Snow Heavy Low Drifting Snow
10:55 AM 15.8 °F -5.8 °F -22.0 °F 17% 29.86 in 6.2 mi NE 35.7 mph 54.1 mph N/A Snow Low Drifting Snow
11:00 AM 16 °F - -22 °F 6%  in 44 mi NE 35.7 mph - - Snow Low Drifting Snow
11:55 AM 14.0 °F -8.0 °F -22.0 °F 19% 29.89 in 6.2 mi ENE 34.5 mph 55.2 mph N/A Snow Low Drifting Snow
12:00 PM 14 °F - -22 °F 7%  in 44 mi ENE 34.5 mph - - Snow Low Drifting Snow
12:55 PM 15.8 °F -6.1 °F -22.0 °F 17% 29.89 in 6.2 mi ENE 36.8 mph 52.9 mph N/A Snow Low Drifting Snow
1:00 PM 15 °F - -22 °F 6%  in 44 mi ENE 36.8 mph - - Snow Low Drifting Snow
1:55 PM 15.8 °F -6.3 °F -22.0 °F 17% 29.92 in 6.2 mi NE 38.0 mph 54.1 mph N/A Snow Low Drifting Snow
2:00 PM 16 °F - -22 °F 6%  in 31 mi NE 38.0 mph - - Snow Low Drifting Snow
2:55 PM 17.6 °F -5.0 °F -20.2 °F 18% 29.95 in 6.2 mi ENE 43.7 mph 62.1 mph N/A Snow Low Drifting Snow
3:00 PM 17 °F - -20 °F 7%  in 37 mi ENE 43.7 mph - - Snow Low Drifting Snow
3:55 PM 17.6 °F -4.5 °F -20.2 °F 18% 29.95 in 6.2 mi NE 41.4 mph 52.9 mph N/A Snow Low Drifting Snow
4:00 PM 17 °F - -19 °F 7%  in 37 mi NE 41.4 mph - - Snow Low Drifting Snow
4:55 PM 17.6 °F -2.8 °F -14.8 °F 23% 29.95 in 6.2 mi ENE 33.4 mph 44.9 mph N/A Snow Low Drifting Snow
5:00 PM 17 °F - -15 °F 10%  in 37 mi ENE 33.4 mph - - Snow Low Drifting Snow
5:55 PM 17.6 °F -2.2 °F -11.2 °F 27% 29.98 in 6.2 mi NE 31.1 mph 46.0 mph N/A Snow Low Drifting Snow
6:00 PM 17 °F - -11 °F 14%  in 37 mi NE 31.1 mph - - Snow Low Drifting Snow
7:00 PM 17 °F - -14 °F 11%  in 37 mi ENE 27.6 mph - - Snow Low Drifting Snow
7:55 PM 15.8 °F -4.4 °F -13.0 °F 27% 30.04 in 6.2 mi NE 29.9 mph - N/A Snow Low Drifting Snow
8:00 PM 17 °F - -12 °F 12%  in 37 mi NE 29.9 mph - - Snow Low Drifting Snow
8:55 PM 15.8 °F -3.7 °F -11.2 °F 30% 30.01 in - ENE 27.6 mph - N/A   Clear
9:00 PM 16 °F - -11 °F 15%  in 16 mi ENE 27.6 mph - -   Partly Cloudy
9:55 PM 15.8 °F -4.1 °F -11.2 °F 30% 30.01 in - ENE 28.8 mph 41.4 mph N/A   Clear
10:00 PM 15 °F - -11 °F 16%  in 6 mi ENE 28.8 mph - -  
10:55 PM 15.8 °F -5.2 °F -9.4 °F 32% 30.01 in - ENE 33.4 mph 46.0 mph N/A   Clear
11:00 PM 15 °F - -10 °F 17%  in 6 mi ENE 33.4 mph - -  
11:55 PM 14.0 °F -8.5 °F -7.6 °F 38% 29.98 in - ENE 36.8 mph - N/A   Clear